Overview Statistics Trail Chart Weather Telemetry Raw packets
 

This is the latest recevied weather packets stored in our database for station/object KB4MOX. If no packets are shown the sender has not sent any weather packets the latest 10 day(s).

<< 7 8 9 10 11 12 13 >>
Time Temp. Humidity Pressure Rain* Wind** Luminosity Snow
1788568043 30.56° C 68% 1015.4 hPa 0 mm - 0 W/m² -
1788567743 30.56° C 66% 1015.1 hPa 0 mm - 0 W/m² -
1788567443 31.11° C 64% 1015.2 hPa 0 mm - 0 W/m² -
1788567142 30.56° C 61% 1015.1 hPa 0 mm - 0 W/m² -
1788566838 30.56° C 62% 1014.7 hPa 0 mm - 0 W/m² -
1788566533 31.11° C 61% 1014.6 hPa 0 mm - 1 W/m² -
1788566228 31.67° C 60% 1014.7 hPa 0 mm - 2 W/m² -
1788565923 31.67° C 59% 1014.5 hPa 0 mm - 4 W/m² -
1788565623 32.22° C 58% 1014.4 hPa 0 mm - 5 W/m² -
1788565318 32.22° C 57% 1014.3 hPa 0 mm - 8 W/m² -
1788565014 32.78° C 57% 1014.3 hPa 0 mm - 10 W/m² -
1788564710 32.78° C 55% 1014.3 hPa 0 mm - 15 W/m² -
1788564406 32.78° C 54% 1014.2 hPa 0 mm - 19 W/m² -
1788564102 32.78° C 54% 1014 hPa 0 mm - 22 W/m² -
1788563797 33.33° C 53% 1014 hPa 0 mm - 24 W/m² -
1788563493 33.33° C 53% 1014 hPa 0 mm - 28 W/m² -
1788563192 33.89° C 52% 1014.1 hPa 0 mm - 27 W/m² -
1788562888 33.89° C 52% 1014.2 hPa 0 mm - 32 W/m² -
1788562585 34.44° C 51% 1014.1 hPa 0 mm - 32 W/m² -
1788562280 34.44° C 50% 1013.9 hPa 0 mm - 32 W/m² -
1788561975 34.44° C 50% 1013.9 hPa 0 mm - 90 W/m² -
1788561669 35° C 49% 1014.2 hPa 0 mm - 102 W/m² -
1788561369 35° C 48% 1013.9 hPa 0 mm - 118 W/m² -
1788561064 35° C 49% 1014.1 hPa 0 mm - 130 W/m² -
1788560760 35° C 48% 1014.1 hPa 0 mm - 145 W/m² -

* Rain latest hour (hover to see other rain measurements)
** Current wind speed in m/s (hover to see current wind gust speed)